Location: Stavanger
(58.9670°N, 5.7500°E)
Time: 23:42:05
(UTC+02:00)

ISS - Pass Details

Date: 28 March 2019
Orbit: 408 x 410 km, 51.6° (Epoch: 26 April)

Event Time Altitude Azimuth Distance (km) Brightness Sun altitude
Rises 20:52:59 0° 249° (WSW) 2,338 0.6 -13.4°
Reaches altitude 10° 20:55:19 10° 235° (SW) 1,476 -0.7 -13.7°
Maximum altitude 20:58:00 23° 180° (S) 922 -2.3 -14.0°
Enters shadow 20:58:39 22° 162° (SSE) 962 -2.4 -14.0°
